Time,TemperatureF,DewpointF,PressureIn,WindDirection,WindDirectionDegrees,WindSpeedMPH,WindSpeedGustMPH,Humidity,HourlyPrecipIn,Conditions,Clouds,dailyrainin,SoftwareType,DateUTC
2013-03-01 00:02:00,33.0,33.0,29.91,WSW,240,1.0,0.0,99,0.01,,,0.06,,2013-03-01 05:02:00,
2013-03-01 00:11:00,33.0,33.0,29.91,WSW,240,1.0,0.0,99,0.01,,,0.06,,2013-03-01 05:11:00,
2013-03-01 00:22:00,33.0,33.0,29.91,WSW,252,2.0,2.0,99,0.01,,,0.04,,2013-03-01 05:22:00,
2013-03-01 00:32:00,33.0,33.0,29.91,West,269,2.0,3.0,99,0.01,,,0.04,,2013-03-01 05:32:00,
2013-03-01 00:42:00,33.0,33.0,29.91,West,269,2.0,3.0,99,0.01,,,0.04,,2013-03-01 05:42:00,
2013-03-01 00:53:00,33.0,33.0,29.90,WNW,288,1.0,1.0,99,0.01,,,0.04,,2013-03-01 05:53:00,
2013-03-01 01:02:00,33.0,33.0,29.90,WNW,302,0.0,0.0,99,0.01,,,0.04,,2013-03-01 06:02:00,
2013-03-01 01:12:00,33.0,33.0,29.90,WNW,301,2.0,2.0,99,0.01,,,0.04,,2013-03-01 06:12:00,
2013-03-01 01:22:00,33.0,33.0,29.90,WNW,301,2.0,2.0,99,0.01,,,0.04,,2013-03-01 06:22:00,
2013-03-01 01:32:00,33.0,33.0,29.90,WNW,300,2.0,2.0,99,0.01,,,0.04,,2013-03-01 06:32:00,
2013-03-01 01:42:00,33.0,33.0,29.90,WNW,300,2.0,2.0,99,0.01,,,0.04,,2013-03-01 06:42:00,
2013-03-01 01:53:00,33.0,33.0,29.90,WSW,250,0.0,0.0,99,0.01,,,0.04,,2013-03-01 06:53:00,
2013-03-01 02:02:00,33.0,33.0,29.90,WSW,250,0.0,0.0,99,0.01,,,0.04,,2013-03-01 07:02:00,
2013-03-01 02:11:00,33.0,33.0,29.90,WSW,250,0.0,0.0,99,0.01,,,0.04,,2013-03-01 07:11:00,
2013-03-01 02:22:00,33.0,33.0,29.90,WSW,250,0.0,0.0,99,0.00,,,0.04,,2013-03-01 07:22:00,
2013-03-01 02:32:00,33.0,33.0,29.90,WSW,250,0.0,0.0,99,0.00,,,0.04,,2013-03-01 07:32:00,
2013-03-01 02:42:00,33.0,33.0,29.90,WSW,250,0.0,0.0,99,0.00,,,0.04,,2013-03-01 07:42:00,
2013-03-01 02:52:00,33.0,33.0,29.89,WSW,250,0.0,0.0,99,0.00,,,0.04,,2013-03-01 07:52:00,
2013-03-01 03:02:00,33.0,33.0,29.89,WSW,250,0.0,0.0,99,0.00,,,0.04,,2013-03-01 08:02:00,
2013-03-01 03:12:00,33.0,33.0,29.89,WSW,250,0.0,0.0,99,0.00,,,0.04,,2013-03-01 08:12:00,
2013-03-01 03:22:00,33.0,33.0,29.89,WSW,250,0.0,0.0,99,0.01,,,0.04,,2013-03-01 08:22:00,
2013-03-01 03:32:00,33.0,33.0,29.88,WSW,250,0.0,0.0,99,0.01,,,0.04,,2013-03-01 08:32:00,
2013-03-01 03:42:00,33.0,33.0,29.88,WSW,250,0.0,0.0,99,0.01,,,0.04,,2013-03-01 08:42:00,
2013-03-01 03:53:00,33.0,33.0,29.88,WNW,290,0.0,0.0,99,0.01,,,0.04,,2013-03-01 08:53:00,
2013-03-01 04:02:00,33.0,33.0,29.89,WNW,288,0.0,0.0,99,0.01,,,0.04,,2013-03-01 09:02:00,
2013-03-01 04:12:00,33.0,33.0,29.89,WNW,288,0.0,0.0,99,0.01,,,0.04,,2013-03-01 09:12:00,
2013-03-01 04:22:00,33.0,33.0,29.88,WNW,288,0.0,0.0,99,0.01,,,0.04,,2013-03-01 09:22:00,
2013-03-01 04:32:00,33.0,33.0,29.88,WNW,288,0.0,0.0,99,0.01,,,0.04,,2013-03-01 09:32:00,
2013-03-01 04:42:00,33.0,33.0,29.88,WNW,288,0.0,0.0,99,0.01,,,0.04,,2013-03-01 09:42:00,
2013-03-01 04:52:00,33.0,33.0,29.88,West,269,0.0,0.0,99,0.01,,,0.04,,2013-03-01 09:52:00,
2013-03-01 05:02:00,33.0,33.0,29.88,West,269,0.0,0.0,99,0.01,,,0.04,,2013-03-01 10:02:00,
2013-03-01 05:11:00,33.0,33.0,29.89,West,269,0.0,0.0,99,0.00,,,0.04,,2013-03-01 10:11:00,
2013-03-01 05:22:00,33.0,33.0,29.89,West,269,0.0,0.0,99,0.00,,,0.04,,2013-03-01 10:22:00,
2013-03-01 05:32:00,33.0,33.0,29.89,West,269,0.0,0.0,99,0.00,,,0.04,,2013-03-01 10:32:00,
2013-03-01 05:42:00,33.0,33.0,29.89,West,269,0.0,0.0,99,0.00,,,0.04,,2013-03-01 10:42:00,
2013-03-01 05:53:00,33.0,33.0,29.89,West,269,0.0,0.0,99,0.00,,,0.04,,2013-03-01 10:53:00,
2013-03-01 06:01:00,33.0,33.0,29.90,West,269,0.0,0.0,99,0.00,,,0.04,,2013-03-01 11:01:00,
2013-03-01 06:11:00,33.0,33.0,29.90,West,269,0.0,0.0,99,0.00,,,0.04,,2013-03-01 11:11:00,
2013-03-01 06:22:00,33.0,33.0,29.90,West,269,0.0,0.0,99,0.01,,,0.04,,2013-03-01 11:22:00,
2013-03-01 06:32:00,33.0,33.0,29.90,West,269,0.0,0.0,99,0.01,,,0.04,,2013-03-01 11:32:00,
2013-03-01 06:42:00,33.0,33.0,29.90,West,269,0.0,0.0,99,0.01,,,0.04,,2013-03-01 11:42:00,
2013-03-01 06:52:00,33.0,33.0,29.90,WNW,293,0.0,0.0,99,0.01,,,0.04,,2013-03-01 11:52:00,
2013-03-01 07:02:00,33.0,33.0,29.90,WNW,293,0.0,0.0,99,0.01,,,0.04,,2013-03-01 12:02:00,
2013-03-01 07:11:00,33.0,33.0,29.90,WNW,293,0.0,0.0,99,0.01,,,0.04,,2013-03-01 12:11:00,
2013-03-01 07:21:00,33.0,33.0,29.89,WNW,290,1.0,1.0,99,0.00,,,0.04,,2013-03-01 12:21:00,
2013-03-01 07:32:00,33.0,33.0,29.89,WNW,290,0.0,0.0,99,0.00,,,0.04,,2013-03-01 12:32:00,
2013-03-01 07:42:00,33.0,33.0,29.89,WNW,290,0.0,0.0,99,0.00,,,0.04,,2013-03-01 12:42:00,
2013-03-01 07:52:00,33.0,33.0,29.89,WNW,290,0.0,0.0,99,0.00,,,0.04,,2013-03-01 12:52:00,
2013-03-01 08:01:00,33.0,33.0,29.90,WNW,290,0.0,0.0,99,0.00,,,0.04,,2013-03-01 13:01:00,
2013-03-01 08:11:00,33.0,33.0,29.91,WNW,290,0.0,0.0,99,0.01,,,0.04,,2013-03-01 13:11:00,
2013-03-01 08:22:00,33.0,33.0,29.91,WNW,290,0.0,0.0,99,0.01,,,0.04,,2013-03-01 13:22:00,
2013-03-01 08:32:00,33.0,33.0,29.91,WNW,290,0.0,0.0,99,0.01,,,0.04,,2013-03-01 13:32:00,
2013-03-01 08:42:00,33.0,33.0,29.91,WNW,290,0.0,0.0,99,0.01,,,0.04,,2013-03-01 13:42:00,
2013-03-01 08:52:00,33.0,33.0,29.92,WNW,290,0.0,0.0,99,0.01,,,0.04,,2013-03-01 13:52:00,
2013-03-01 09:01:00,34.0,34.0,29.92,WNW,290,0.0,0.0,99,0.01,,,0.04,,2013-03-01 14:01:00,
2013-03-01 09:11:00,34.0,34.0,29.92,WNW,290,0.0,0.0,99,0.01,,,0.04,,2013-03-01 14:11:00,
2013-03-01 09:21:00,34.0,34.0,29.92,WNW,290,0.0,0.0,99,0.02,,,0.04,,2013-03-01 14:21:00,
2013-03-01 09:32:00,34.0,34.0,29.92,West,277,0.0,0.0,99,0.02,,,0.04,,2013-03-01 14:32:00,
2013-03-01 09:42:00,34.0,34.0,29.92,West,277,0.0,0.0,99,0.02,,,0.04,,2013-03-01 14:42:00,
2013-03-01 09:52:00,34.0,34.0,29.92,WNW,295,3.0,3.0,99,0.02,,,0.04,,2013-03-01 14:52:00,
2013-03-01 10:02:00,34.0,34.0,29.93,WNW,300,2.0,3.0,99,0.02,,,0.04,,2013-03-01 15:02:00,
2013-03-01 10:11:00,34.0,34.0,29.93,NW,309,0.0,0.0,99,0.03,,,0.04,,2013-03-01 15:11:00,
2013-03-01 10:21:00,34.0,34.0,29.93,NW,309,0.0,0.0,99,0.03,,,0.04,,2013-03-01 15:21:00,
2013-03-01 10:32:00,35.0,35.0,29.92,NW,309,0.0,0.0,99,0.03,,,0.04,,2013-03-01 15:32:00,
2013-03-01 10:42:00,35.0,35.0,29.92,NW,309,0.0,0.0,99,0.03,,,0.04,,2013-03-01 15:42:00,
2013-03-01 10:52:00,34.0,34.0,29.93,NW,309,0.0,0.0,98,0.03,,,0.04,,2013-03-01 15:52:00,
2013-03-01 11:01:00,35.0,35.0,29.93,NW,309,0.0,0.0,99,0.03,,,0.04,,2013-03-01 16:01:00,
2013-03-01 11:11:00,35.0,35.0,29.93,NW,309,0.0,0.0,99,0.03,,,0.04,,2013-03-01 16:11:00,
2013-03-01 11:21:00,35.0,35.0,29.93,NW,309,0.0,0.0,99,0.02,,,0.04,,2013-03-01 16:21:00,
2013-03-01 11:32:00,35.0,34.0,29.93,WNW,294,0.0,0.0,98,0.02,,,0.04,,2013-03-01 16:32:00,
2013-03-01 11:42:00,35.0,34.0,29.93,WNW,294,0.0,0.0,98,0.02,,,0.04,,2013-03-01 16:42:00,
2013-03-01 11:52:00,35.0,34.0,29.93,NW,308,2.0,3.0,98,0.02,,,0.04,,2013-03-01 16:52:00,
2013-03-01 12:01:00,34.0,34.0,29.93,NW,307,0.0,0.0,98,0.02,,,0.04,,2013-03-01 17:01:00,
2013-03-01 12:11:00,34.0,34.0,29.94,NW,316,3.0,3.0,98,0.02,,,0.04,,2013-03-01 17:11:00,
2013-03-01 12:21:00,34.0,34.0,29.94,NW,316,3.0,3.0,98,0.02,,,0.04,,2013-03-01 17:21:00,
2013-03-01 12:32:00,36.0,36.0,29.93,NW,309,3.0,3.0,99,0.03,,,0.04,,2013-03-01 17:32:00,
2013-03-01 12:42:00,36.0,35.0,29.92,NW,311,4.0,4.0,98,0.03,,,0.04,,2013-03-01 17:42:00,
2013-03-01 12:52:00,36.0,35.0,29.92,NW,311,4.0,4.0,98,0.03,,,0.04,,2013-03-01 17:52:00,
2013-03-01 13:01:00,35.0,34.0,29.92,NNW,330,2.0,4.0,96,0.03,,,0.04,,2013-03-01 18:01:00,
2013-03-01 13:12:00,35.0,34.0,29.92,NNW,330,2.0,4.0,96,0.03,,,0.04,,2013-03-01 18:12:00,
2013-03-01 13:22:00,34.0,34.0,29.92,NNW,332,2.0,2.0,98,0.02,,,0.04,,2013-03-01 18:22:00,
2013-03-01 13:32:00,35.0,34.0,29.92,WNW,301,3.0,3.0,98,0.02,,,0.04,,2013-03-01 18:32:00,
2013-03-01 13:42:00,34.0,34.0,29.91,NNW,338,4.0,4.0,98,0.02,,,0.04,,2013-03-01 18:42:00,
2013-03-01 13:52:00,34.0,34.0,29.91,NNW,338,4.0,4.0,98,0.02,,,0.04,,2013-03-01 18:52:00,
2013-03-01 14:01:00,33.0,32.0,29.91,NNW,333,3.0,3.0,98,0.02,,,0.04,,2013-03-01 19:01:00,
2013-03-01 14:11:00,33.0,32.0,29.91,NNW,333,3.0,3.0,98,0.02,,,0.04,,2013-03-01 19:11:00,
2013-03-01 14:21:00,35.0,35.0,29.90,NW,314,2.0,5.0,99,0.05,,,0.04,,2013-03-01 19:21:00,
2013-03-01 14:32:00,35.0,35.0,29.90,NW,319,4.0,5.0,99,0.05,,,0.04,,2013-03-01 19:32:00,
2013-03-01 14:42:00,35.0,35.0,29.90,NW,319,4.0,5.0,99,0.05,,,0.04,,2013-03-01 19:42:00,
2013-03-01 14:52:00,35.0,34.0,29.90,WNW,288,4.0,4.0,98,0.05,,,0.04,,2013-03-01 19:52:00,
2013-03-01 15:01:00,36.0,35.0,29.90,WNW,302,3.0,3.0,97,0.05,,,0.04,,2013-03-01 20:01:00,
2013-03-01 15:11:00,36.0,35.0,29.90,WNW,302,3.0,3.0,97,0.05,,,0.04,,2013-03-01 20:11:00,
2013-03-01 15:21:00,36.0,35.0,29.89,WNW,285,4.0,4.0,96,0.00,,,0.04,,2013-03-01 20:21:00,
2013-03-01 15:32:00,36.0,35.0,29.90,WNW,284,3.0,6.0,96,0.00,,,0.04,,2013-03-01 20:32:00,
2013-03-01 15:42:00,36.0,35.0,29.90,WNW,284,3.0,6.0,96,0.00,,,0.04,,2013-03-01 20:42:00,
2013-03-01 15:52:00,36.0,35.0,29.89,NW,304,2.0,2.0,96,0.00,,,0.04,,2013-03-01 20:52:00,
2013-03-01 16:01:00,36.0,35.0,29.90,WNW,294,5.0,5.0,95,0.00,,,0.04,,2013-03-01 21:01:00,
2013-03-01 16:11:00,36.0,35.0,29.90,WNW,295,3.0,3.0,97,0.01,,,0.04,,2013-03-01 21:11:00,
2013-03-01 16:21:00,36.0,35.0,29.90,WNW,295,3.0,3.0,97,0.01,,,0.04,,2013-03-01 21:21:00,
2013-03-01 16:32:00,36.0,35.0,29.90,WNW,287,4.0,4.0,96,0.01,,,0.04,,2013-03-01 21:32:00,
2013-03-01 16:42:00,35.0,34.0,29.90,West,280,2.0,2.0,97,0.01,,,0.04,,2013-03-01 21:42:00,
2013-03-01 16:52:00,35.0,34.0,29.90,West,280,2.0,2.0,97,0.01,,,0.04,,2013-03-01 21:52:00,
2013-03-01 17:01:00,35.0,34.0,29.90,West,273,4.0,4.0,97,0.01,,,0.04,,2013-03-01 22:01:00,
2013-03-01 17:11:00,35.0,34.0,29.90,West,260,1.0,0.0,97,0.01,,,0.04,,2013-03-01 22:11:00,
2013-03-01 17:21:00,35.0,34.0,29.90,West,260,1.0,0.0,97,0.01,,,0.04,,2013-03-01 22:21:00,
2013-03-01 17:32:00,34.0,34.0,29.91,West,270,0.0,0.0,98,0.01,,,0.04,,2013-03-01 22:32:00,
2013-03-01 17:42:00,34.0,34.0,29.91,West,270,0.0,0.0,98,0.01,,,0.04,,2013-03-01 22:42:00,
2013-03-01 17:52:00,34.0,34.0,29.91,West,276,3.0,4.0,98,0.01,,,0.04,,2013-03-01 22:52:00,
2013-03-01 18:01:00,34.0,34.0,29.91,West,263,0.0,0.0,98,0.01,,,0.04,,2013-03-01 23:01:00,
2013-03-01 18:11:00,34.0,34.0,29.91,West,263,0.0,0.0,98,0.01,,,0.04,,2013-03-01 23:11:00,
2013-03-01 18:21:00,34.0,34.0,29.91,West,263,0.0,0.0,98,0.01,,,0.04,,2013-03-01 23:21:00,
2013-03-01 18:32:00,33.0,32.0,29.92,WNW,284,0.0,0.0,98,0.01,,,0.04,,2013-03-01 23:32:00,
2013-03-01 18:41:00,33.0,32.0,29.92,WNW,284,0.0,0.0,98,0.01,,,0.04,,2013-03-01 23:41:00,
2013-03-01 18:52:00,33.0,32.0,29.93,WNW,284,0.0,0.0,98,0.01,,,0.04,,2013-03-01 23:52:00,
2013-03-01 19:02:00,33.0,32.0,29.93,WNW,284,0.0,0.0,98,0.01,,,0.04,,2013-03-02 00:02:00,
2013-03-01 19:12:00,33.0,32.0,29.93,WNW,284,0.0,0.0,98,0.01,,,0.04,,2013-03-02 00:12:00,
2013-03-01 19:22:00,33.0,32.0,29.93,WNW,284,0.0,0.0,98,0.00,,,0.04,,2013-03-02 00:22:00,
2013-03-01 19:32:00,33.0,32.0,29.93,WNW,284,0.0,0.0,98,0.00,,,0.04,,2013-03-02 00:32:00,
2013-03-01 19:42:00,33.0,32.0,29.93,WNW,284,0.0,0.0,98,0.00,,,0.04,,2013-03-02 00:42:00,
2013-03-01 19:52:00,33.0,32.0,29.93,WNW,284,0.0,0.0,98,0.00,,,0.04,,2013-03-02 00:52:00,
2013-03-01 20:01:00,33.0,32.0,29.93,WNW,284,0.0,0.0,98,0.00,,,0.04,,2013-03-02 01:01:00,
2013-03-01 20:11:00,33.0,32.0,29.93,WNW,284,0.0,0.0,98,0.00,,,0.04,,2013-03-02 01:11:00,
2013-03-01 20:21:00,33.0,32.0,29.93,WNW,284,0.0,0.0,98,0.00,,,0.04,,2013-03-02 01:21:00,
2013-03-01 20:32:00,33.0,32.0,29.93,WNW,284,0.0,0.0,98,0.00,,,0.04,,2013-03-02 01:32:00,
2013-03-01 20:41:00,33.0,32.0,29.93,WNW,284,0.0,0.0,98,0.00,,,0.04,,2013-03-02 01:41:00,
2013-03-01 20:52:00,33.0,32.0,29.93,WNW,284,0.0,0.0,98,0.00,,,0.04,,2013-03-02 01:52:00,
2013-03-01 21:01:00,33.0,32.0,29.93,WNW,284,0.0,0.0,98,0.00,,,0.04,,2013-03-02 02:01:00,
2013-03-01 21:11:00,33.0,32.0,29.93,WNW,284,0.0,0.0,98,0.00,,,0.04,,2013-03-02 02:11:00,
2013-03-01 21:22:00,33.0,32.0,29.93,WNW,284,0.0,0.0,98,0.00,,,0.04,,2013-03-02 02:22:00,
2013-03-01 21:32:00,33.0,32.0,29.93,WNW,284,0.0,0.0,98,0.00,,,0.04,,2013-03-02 02:32:00,
2013-03-01 21:42:00,33.0,32.0,29.93,WNW,284,0.0,0.0,98,0.00,,,0.04,,2013-03-02 02:42:00,
2013-03-01 21:52:00,33.0,32.0,29.93,WNW,284,0.0,0.0,98,0.00,,,0.04,,2013-03-02 02:52:00,
2013-03-01 22:02:00,33.0,32.0,29.94,WNW,284,0.0,0.0,98,0.00,,,0.04,,2013-03-02 03:02:00,
2013-03-01 22:11:00,33.0,32.0,29.94,WNW,284,0.0,0.0,98,0.00,,,0.04,,2013-03-02 03:11:00,
2013-03-01 22:22:00,33.0,32.0,29.94,WNW,284,0.0,0.0,98,0.00,,,0.04,,2013-03-02 03:22:00,
2013-03-01 22:32:00,32.0,32.0,29.94,WNW,284,0.0,0.0,98,0.00,,,0.04,,2013-03-02 03:32:00,
2013-03-01 22:42:00,32.0,32.0,29.94,WNW,284,0.0,0.0,98,0.00,,,0.04,,2013-03-02 03:42:00,
2013-03-01 22:52:00,32.0,32.0,29.94,WNW,284,0.0,0.0,99,0.00,,,0.04,,2013-03-02 03:52:00,
2013-03-01 23:01:00,32.0,32.0,29.94,WNW,284,0.0,0.0,99,0.00,,,0.04,,2013-03-02 04:01:00,
2013-03-01 23:11:00,32.0,32.0,29.94,WNW,284,0.0,0.0,99,0.00,,,0.04,,2013-03-02 04:11:00,
2013-03-01 23:22:00,32.0,32.0,29.94,WNW,284,0.0,0.0,99,0.00,,,0.04,,2013-03-02 04:22:00,
2013-03-01 23:32:00,32.0,32.0,29.94,WNW,284,0.0,0.0,98,0.00,,,0.04,,2013-03-02 04:32:00,
2013-03-01 23:42:00,32.0,32.0,29.94,WNW,284,0.0,0.0,98,0.00,,,0.04,,2013-03-02 04:42:00,
2013-03-01 23:52:00,32.0,32.0,29.94,WNW,284,0.0,0.0,98,0.00,,,0.04,,2013-03-02 04:52:00,